Home   Weather   Macau   Past weeks

Flag for Macau Past Weather in Macau, Macau — Yesterday and Last 2 Weeks

82 °F

Passing clouds.

Feels Like: 91 °F
Forecast: 77 / 83 °F
Wind: 9 mph from South

Location: Taipa

Current Time: Oct 22, 2016 at 5:03:08 PM

Latest Report: Oct 22, 2016 at 4:30 PM

Visibility: N/A

Pressure: 29.71 "Hg

Humidity: 84%

Dew Point: 77 °F

Location of MacauLocation

Past Weather in Macau — Graph


Macau Temperature Yesterday

Maximum temperature yesterday: 84 °F (at 12:30 PM)
Minimum temperature yesterday: 81 °F (at 12:00 AM)
Average temperature yesterday: 81 °F

High & Low Weather Summary for the Past Weeks

High88 °F (Oct 8, 2:00 PM)100% (Oct 19, 9:00 PM)29.98 "Hg (Oct 19, 9:00 PM)
Low73 °F (Oct 11, 3:30 AM)62% (Oct 8, 2:30 PM)29.36 "Hg (Oct 21, 11:30 AM)
Average80 °F79%29.78 "Hg
* Reported Oct 7 4:00 PM — Oct 22 4:00 PM, Macau, Weather by CustomWeather, © 2016

Note: Actual official high and low records may vary slightly from our data, if they occured in-between our weather recording intervals... More about our weather records


Macau Weather History for the Previous 24 Hours

Scroll right to see more
Time TempWeatherWind HumidityBarometerVisibility
4:00 PM
Sat, Oct 22
84 °FPassing clouds.9 mph79%29.71 "HgN/A
3:30 PM82 °FPassing clouds.9 mph84%29.71 "HgN/A
3:00 PM84 °FPassing clouds.10 mph79%29.71 "HgN/A
2:30 PM84 °FPassing clouds.10 mph79%29.71 "HgN/A
2:00 PM84 °FScattered clouds.12 mph79%29.74 "HgN/A
1:30 PM84 °FScattered clouds.12 mph84%29.74 "HgN/A
1:00 PM84 °FScattered clouds.10 mph79%29.74 "HgN/A
12:30 PM84 °FScattered clouds.12 mph79%29.74 "HgN/A
12:00 PM82 °FScattered clouds.13 mph84%29.77 "HgN/A
11:30 AM84 °FScattered clouds.13 mph84%29.77 "HgN/A
11:00 AM82 °FScattered clouds.12 mph89%29.77 "HgN/A
10:30 AM82 °FScattered clouds.12 mph89%29.80 "HgN/A
10:00 AM81 °FScattered clouds.9 mph94%29.80 "HgN/A
9:30 AM81 °FScattered clouds.13 mph89%29.80 "HgN/A
9:00 AM81 °FScattered clouds.12 mph89%29.77 "HgN/A
8:30 AM81 °FScattered clouds.10 mph89%29.77 "HgN/A
8:00 AM81 °FScattered clouds.12 mph89%29.74 "Hg6 mi
7:30 AM81 °FScattered clouds.10 mph89%29.74 "Hg6 mi
7:00 AM81 °FScattered clouds.9 mph89%29.74 "HgN/A
6:30 AM79 °FScattered clouds.6 mph94%29.71 "HgN/A
6:00 AM81 °FPassing clouds.12 mph89%29.71 "HgN/A
5:30 AM81 °FPassing clouds.10 mph89%29.68 "HgN/A
5:00 AM81 °FPassing clouds.12 mph89%29.68 "HgN/A
4:30 AM81 °FPassing clouds.16 mph89%29.68 "HgN/A
4:00 AM81 °FPassing clouds.16 mph89%29.68 "HgN/A
3:30 AM81 °FPassing clouds.17 mph89%29.65 "Hg6 mi
3:00 AM81 °FPassing clouds.16 mph89%29.65 "Hg6 mi
2:30 AM81 °FPassing clouds.18 mph89%29.65 "Hg6 mi
2:00 AM81 °FPassing clouds.18 mph89%29.65 "Hg5 mi
1:30 AM81 °FPassing clouds.17 mph89%29.65 "Hg5 mi
1:00 AM81 °FPassing clouds.17 mph89%29.65 "Hg5 mi
12:00 AM81 °FPassing clouds.18 mph89%29.65 "Hg5 mi
11:30 PM
Fri, Oct 21
81 °FPassing clouds.17 mph89%29.65 "Hg5 mi
11:00 PM81 °FPassing clouds.16 mph89%29.65 "Hg4 mi
10:30 PM81 °FPassing clouds.15 mph89%29.62 "Hg4 mi
10:00 PM81 °FPassing clouds.14 mph89%29.62 "Hg5 mi
9:30 PM81 °FPassing clouds.13 mph89%29.62 "Hg6 mi
9:00 PM81 °FPassing clouds.12 mph89%29.59 "Hg6 mi
8:30 PM81 °FPassing clouds.10 mph89%29.59 "HgN/A
8:00 PM81 °FPassing clouds.15 mph89%29.56 "HgN/A
7:30 PM81 °FPassing clouds.18 mph89%29.53 "Hg6 mi
7:00 PM81 °FSprinkles. Passing clouds.21 mph89%29.53 "Hg6 mi
6:30 PM81 °FSprinkles. Passing clouds.24 mph89%29.50 "HgN/A
6:00 PM81 °FSprinkles. Passing clouds.20 mph89%29.50 "HgN/A
5:30 PM81 °FSprinkles. Scattered clouds.20 mph84%29.50 "Hg6 mi
5:00 PM81 °FSprinkles. Scattered clouds.22 mph84%29.47 "Hg5 mi
Weather by CustomWeather, © 2016

See weather overviewHow to use our weather pages